Time,TemperatureF,DewpointF,PressureIn,WindDirection,WindDirectionDegrees,WindSpeedMPH,WindSpeedGustMPH,Humidity,HourlyPrecipIn,Conditions,Clouds,dailyrainin,SoftwareType,DateUTC
2013-04-26 00:00:00,40.0,40.0,30.29,SSW,202,0.0,0.0,98,0.00,,,0.00,Rainwise IP-100,2013-04-26 04:00:00,
2013-04-26 00:01:00,40.0,40.0,30.29,SSW,202,0.0,0.0,98,0.00,,,0.00,Rainwise IP-100,2013-04-26 04:01:00,
2013-04-26 00:02:00,40.0,40.0,30.29,SSW,202,0.0,0.0,98,0.00,,,0.00,Rainwise IP-100,2013-04-26 04:02:00,
2013-04-26 00:07:00,40.0,40.0,30.29,SSW,202,0.0,0.0,98,0.00,,,0.00,Rainwise IP-100,2013-04-26 04:07:00,
2013-04-26 00:12:00,39.9,40.0,30.29,SSW,202,0.0,0.0,98,0.00,,,0.00,Rainwise IP-100,2013-04-26 04:12:00,
2013-04-26 00:17:00,39.7,40.0,30.29,SSW,202,0.0,0.0,98,0.00,,,0.00,Rainwise IP-100,2013-04-26 04:17:00,
2013-04-26 00:22:00,39.4,39.0,30.29,SSW,202,0.0,0.0,98,0.00,,,0.00,Rainwise IP-100,2013-04-26 04:22:00,
2013-04-26 00:27:00,39.4,39.0,30.29,SSW,202,0.0,0.0,98,0.00,,,0.00,Rainwise IP-100,2013-04-26 04:27:00,
2013-04-26 00:32:00,39.4,39.0,30.29,SSW,202,0.0,0.0,99,0.00,,,0.00,Rainwise IP-100,2013-04-26 04:32:00,
2013-04-26 00:37:00,39.2,39.0,30.29,SSW,202,0.0,0.0,99,0.00,,,0.00,Rainwise IP-100,2013-04-26 04:37:00,
2013-04-26 00:42:00,39.2,39.0,30.30,SSW,202,0.0,0.0,99,0.00,,,0.00,Rainwise IP-100,2013-04-26 04:42:00,
2013-04-26 00:47:00,39.1,39.0,30.30,SSW,202,0.0,0.0,99,0.00,,,0.00,Rainwise IP-100,2013-04-26 04:47:00,
2013-04-26 00:52:00,38.9,39.0,30.30,SSW,202,0.0,0.0,99,0.00,,,0.00,Rainwise IP-100,2013-04-26 04:52:00,
2013-04-26 00:57:00,38.8,39.0,30.31,SSW,202,0.0,0.0,99,0.00,,,0.00,Rainwise IP-100,2013-04-26 04:57:00,
2013-04-26 01:02:00,38.7,39.0,30.30,SSW,202,0.0,0.0,99,0.00,,,0.00,Rainwise IP-100,2013-04-26 05:02:00,
2013-04-26 01:07:00,38.5,39.0,30.30,SSW,202,0.0,0.0,99,0.00,,,0.00,Rainwise IP-100,2013-04-26 05:07:00,
2013-04-26 01:12:00,38.4,38.0,30.30,SSW,202,0.0,0.0,99,0.00,,,0.00,Rainwise IP-100,2013-04-26 05:12:00,
2013-04-26 01:17:00,38.2,38.0,30.30,SSW,202,0.0,0.0,99,0.00,,,0.00,Rainwise IP-100,2013-04-26 05:17:00,
2013-04-26 01:22:00,38.1,38.0,30.30,SSW,202,0.0,0.0,99,0.00,,,0.00,Rainwise IP-100,2013-04-26 05:22:00,
2013-04-26 01:27:00,38.0,38.0,30.30,SSW,202,0.0,0.0,99,0.00,,,0.00,Rainwise IP-100,2013-04-26 05:27:00,
2013-04-26 01:32:00,37.9,38.0,30.30,SSW,202,0.0,0.0,99,0.00,,,0.00,Rainwise IP-100,2013-04-26 05:32:00,
2013-04-26 01:37:00,37.7,38.0,30.30,SSW,202,0.0,0.0,99,0.00,,,0.00,Rainwise IP-100,2013-04-26 05:37:00,
2013-04-26 01:42:00,37.5,38.0,30.30,SSW,202,0.0,0.0,99,0.00,,,0.00,Rainwise IP-100,2013-04-26 05:42:00,
2013-04-26 01:47:00,37.4,37.0,30.29,SSW,202,0.0,0.0,99,0.00,,,0.00,Rainwise IP-100,2013-04-26 05:47:00,
2013-04-26 01:52:00,37.3,37.0,30.30,SSW,202,0.0,0.0,99,0.00,,,0.00,Rainwise IP-100,2013-04-26 05:52:00,
2013-04-26 01:57:00,37.2,37.0,30.30,SSW,202,0.0,0.0,99,0.00,,,0.00,Rainwise IP-100,2013-04-26 05:57:00,
2013-04-26 02:02:00,37.2,37.0,30.30,SSW,202,0.0,0.0,100,0.00,,,0.00,Rainwise IP-100,2013-04-26 06:02:00,
2013-04-26 02:07:00,37.1,37.0,30.29,SSW,202,0.0,0.0,100,0.00,,,0.00,Rainwise IP-100,2013-04-26 06:07:00,
2013-04-26 02:12:00,37.0,37.0,30.29,SSW,202,0.0,0.0,100,0.00,,,0.00,Rainwise IP-100,2013-04-26 06:12:00,
2013-04-26 02:17:00,36.9,37.0,30.29,SSW,202,0.0,0.0,100,0.00,,,0.00,Rainwise IP-100,2013-04-26 06:17:00,
2013-04-26 02:22:00,36.7,37.0,30.30,SSW,202,0.0,0.0,100,0.00,,,0.00,Rainwise IP-100,2013-04-26 06:22:00,
2013-04-26 02:27:00,36.6,37.0,30.30,SSW,202,0.0,0.0,100,0.00,,,0.00,Rainwise IP-100,2013-04-26 06:27:00,
2013-04-26 02:32:00,36.4,36.0,30.29,SSW,202,0.0,0.0,100,0.00,,,0.00,Rainwise IP-100,2013-04-26 06:32:00,
2013-04-26 02:37:00,36.4,36.0,30.30,SSW,202,0.0,0.0,100,0.00,,,0.00,Rainwise IP-100,2013-04-26 06:37:00,
2013-04-26 02:42:00,36.4,36.0,30.30,SSW,202,0.0,0.0,100,0.00,,,0.00,Rainwise IP-100,2013-04-26 06:42:00,
2013-04-26 02:47:00,36.2,36.0,30.30,SSW,202,0.0,0.0,100,0.00,,,0.00,Rainwise IP-100,2013-04-26 06:47:00,
2013-04-26 02:52:00,36.2,36.0,30.30,SSW,202,0.0,0.0,100,0.00,,,0.00,Rainwise IP-100,2013-04-26 06:52:00,
2013-04-26 02:57:00,36.2,36.0,30.30,SSW,202,0.0,0.0,100,0.00,,,0.00,Rainwise IP-100,2013-04-26 06:57:00,
2013-04-26 03:02:00,36.1,36.0,30.31,SSW,202,0.0,0.0,100,0.00,,,0.00,Rainwise IP-100,2013-04-26 07:02:00,
2013-04-26 03:07:00,35.9,36.0,30.31,SSW,202,0.0,0.0,100,0.00,,,0.00,Rainwise IP-100,2013-04-26 07:07:00,
2013-04-26 03:12:00,36.0,36.0,30.31,SSW,202,0.0,0.0,100,0.00,,,0.00,Rainwise IP-100,2013-04-26 07:12:00,
2013-04-26 03:17:00,36.0,36.0,30.31,SSW,202,0.0,0.0,100,0.00,,,0.00,Rainwise IP-100,2013-04-26 07:17:00,
2013-04-26 03:22:00,36.0,36.0,30.31,SSW,202,0.0,0.0,100,0.00,,,0.00,Rainwise IP-100,2013-04-26 07:22:00,
2013-04-26 03:27:00,36.0,36.0,30.31,SSW,202,1.2,0.0,100,0.00,,,0.00,Rainwise IP-100,2013-04-26 07:27:00,
2013-04-26 03:32:00,36.1,36.0,30.32,SSW,202,0.0,1.2,100,0.00,,,0.00,Rainwise IP-100,2013-04-26 07:32:00,
2013-04-26 03:37:00,35.9,36.0,30.32,SSW,202,0.0,0.0,100,0.00,,,0.00,Rainwise IP-100,2013-04-26 07:37:00,
2013-04-26 03:42:00,35.8,36.0,30.32,SSW,202,0.0,0.0,100,0.00,,,0.00,Rainwise IP-100,2013-04-26 07:42:00,
2013-04-26 03:47:00,35.8,36.0,30.32,SSW,202,0.0,0.0,100,0.00,,,0.00,Rainwise IP-100,2013-04-26 07:47:00,
2013-04-26 03:52:00,35.9,36.0,30.32,SSW,202,0.0,0.0,100,0.00,,,0.00,Rainwise IP-100,2013-04-26 07:52:00,
2013-04-26 03:57:00,35.9,36.0,30.32,SSW,202,0.0,0.0,100,0.00,,,0.00,Rainwise IP-100,2013-04-26 07:57:00,
2013-04-26 04:02:00,35.9,36.0,30.32,SSW,202,0.0,0.0,100,0.00,,,0.00,Rainwise IP-100,2013-04-26 08:02:00,
2013-04-26 04:07:00,36.1,36.0,30.32,SSW,202,0.0,0.0,100,0.00,,,0.00,Rainwise IP-100,2013-04-26 08:07:00,
2013-04-26 04:12:00,36.3,36.0,30.32,SSW,202,0.0,0.0,100,0.00,,,0.00,Rainwise IP-100,2013-04-26 08:12:00,
2013-04-26 04:17:00,36.6,37.0,30.32,SSW,202,0.0,0.0,100,0.00,,,0.00,Rainwise IP-100,2013-04-26 08:17:00,
2013-04-26 04:22:00,37.1,37.0,30.32,SSW,202,0.0,0.0,100,0.00,,,0.00,Rainwise IP-100,2013-04-26 08:22:00,
2013-04-26 04:27:00,37.4,37.0,30.32,SSW,202,0.0,0.0,100,0.00,,,0.00,Rainwise IP-100,2013-04-26 08:27:00,
2013-04-26 04:32:00,37.6,38.0,30.32,SSW,202,0.0,0.0,100,0.00,,,0.00,Rainwise IP-100,2013-04-26 08:32:00,
2013-04-26 04:37:00,38.0,38.0,30.32,SSW,202,0.0,1.2,100,0.00,,,0.00,Rainwise IP-100,2013-04-26 08:37:00,
2013-04-26 04:42:00,38.6,39.0,30.33,SSW,202,0.0,0.0,100,0.00,,,0.00,Rainwise IP-100,2013-04-26 08:42:00,
2013-04-26 04:47:00,39.2,39.0,30.33,NNE,22,1.2,2.8,100,0.00,,,0.00,Rainwise IP-100,2013-04-26 08:47:00,
2013-04-26 04:52:00,39.7,40.0,30.34,ENE,67,2.3,2.3,100,0.00,,,0.00,Rainwise IP-100,2013-04-26 08:52:00,
2013-04-26 04:57:00,40.1,40.0,30.34,NE,45,0.0,4.4,100,0.00,,,0.00,Rainwise IP-100,2013-04-26 08:57:00,
2013-04-26 05:02:00,40.3,40.0,30.34,NE,45,1.9,3.0,100,0.00,,,0.00,Rainwise IP-100,2013-04-26 09:02:00,
2013-04-26 05:07:00,40.6,41.0,30.34,NE,45,0.0,2.6,100,0.00,,,0.00,Rainwise IP-100,2013-04-26 09:07:00,
2013-04-26 05:12:00,40.7,41.0,30.34,North,360,0.0,5.8,100,0.00,,,0.00,Rainwise IP-100,2013-04-26 09:12:00,
2013-04-26 05:17:00,40.8,41.0,30.34,NNE,22,1.9,2.3,100,0.00,,,0.00,Rainwise IP-100,2013-04-26 09:17:00,
2013-04-26 05:22:00,40.9,41.0,30.34,NNE,22,3.5,4.0,100,0.00,,,0.00,Rainwise IP-100,2013-04-26 09:22:00,
2013-04-26 05:27:00,41.2,41.0,30.35,NE,45,0.0,4.9,100,0.00,,,0.00,Rainwise IP-100,2013-04-26 09:27:00,
2013-04-26 05:32:00,41.4,41.0,30.35,NE,45,0.0,2.3,100,0.00,,,0.00,Rainwise IP-100,2013-04-26 09:32:00,
2013-04-26 05:37:00,41.4,41.0,30.35,East,90,1.2,3.5,99,0.00,,,0.00,Rainwise IP-100,2013-04-26 09:37:00,
2013-04-26 05:42:00,41.4,41.0,30.35,East,90,0.0,2.3,99,0.00,,,0.00,Rainwise IP-100,2013-04-26 09:42:00,
2013-04-26 05:47:00,41.5,42.0,30.36,NE,45,2.1,3.7,99,0.00,,,0.00,Rainwise IP-100,2013-04-26 09:47:00,
2013-04-26 05:52:00,41.7,42.0,30.36,ENE,67,1.6,4.0,99,0.00,,,0.00,Rainwise IP-100,2013-04-26 09:52:00,
2013-04-26 05:57:00,41.7,41.0,30.36,NE,45,2.8,2.8,98,0.00,,,0.00,Rainwise IP-100,2013-04-26 09:57:00,
2013-04-26 06:02:00,41.8,41.0,30.36,NE,45,0.0,3.0,98,0.00,,,0.00,Rainwise IP-100,2013-04-26 10:02:00,
2013-04-26 06:07:00,41.8,41.0,30.36,ENE,67,1.4,2.1,98,0.00,,,0.00,Rainwise IP-100,2013-04-26 10:07:00,
2013-04-26 06:12:00,41.9,41.0,30.36,ENE,67,0.0,2.6,98,0.00,,,0.00,Rainwise IP-100,2013-04-26 10:12:00,
2013-04-26 06:17:00,42.1,41.0,30.37,ENE,67,1.6,1.6,98,0.00,,,0.00,Rainwise IP-100,2013-04-26 10:17:00,
2013-04-26 06:22:00,42.2,41.0,30.37,ENE,67,1.4,2.6,98,0.00,,,0.00,Rainwise IP-100,2013-04-26 10:22:00,
2013-04-26 06:27:00,42.6,42.0,30.37,NE,45,0.0,2.8,98,0.00,,,0.00,Rainwise IP-100,2013-04-26 10:27:00,
2013-04-26 06:32:00,43.0,42.0,30.37,NE,45,0.0,2.6,97,0.00,,,0.00,Rainwise IP-100,2013-04-26 10:32:00,
2013-04-26 06:37:00,43.2,42.0,30.37,NE,45,1.2,1.6,97,0.00,,,0.00,Rainwise IP-100,2013-04-26 10:37:00,
2013-04-26 06:42:00,43.6,43.0,30.38,NE,45,0.0,2.1,96,0.00,,,0.00,Rainwise IP-100,2013-04-26 10:42:00,
2013-04-26 06:47:00,44.3,43.0,30.38,NE,45,0.0,2.3,96,0.00,,,0.00,Rainwise IP-100,2013-04-26 10:47:00,
2013-04-26 06:52:00,44.8,44.0,30.38,ENE,67,0.0,3.7,95,0.00,,,0.00,Rainwise IP-100,2013-04-26 10:52:00,
2013-04-26 06:57:00,45.3,44.0,30.39,ENE,67,0.0,2.6,95,0.00,,,0.00,Rainwise IP-100,2013-04-26 10:57:00,
2013-04-26 07:02:00,46.0,44.0,30.39,ENE,67,2.1,5.1,94,0.00,,,0.00,Rainwise IP-100,2013-04-26 11:02:00,
2013-04-26 07:07:00,46.6,44.0,30.39,NE,45,2.8,5.4,92,0.00,,,0.00,Rainwise IP-100,2013-04-26 11:07:00,
2013-04-26 07:12:00,47.1,44.0,30.39,ENE,67,4.4,5.1,90,0.00,,,0.00,Rainwise IP-100,2013-04-26 11:12:00,
2013-04-26 07:17:00,47.4,44.0,30.39,East,90,4.0,7.9,89,0.00,,,0.00,Rainwise IP-100,2013-04-26 11:17:00,
2013-04-26 07:22:00,47.7,44.0,30.39,ENE,67,4.9,6.1,87,0.00,,,0.00,Rainwise IP-100,2013-04-26 11:22:00,
2013-04-26 07:27:00,48.1,44.0,30.39,ENE,67,2.6,5.6,86,0.00,,,0.00,Rainwise IP-100,2013-04-26 11:27:00,
2013-04-26 07:32:00,48.5,45.0,30.40,East,90,3.7,6.8,85,0.00,,,0.00,Rainwise IP-100,2013-04-26 11:32:00,
2013-04-26 07:37:00,49.0,44.0,30.40,ENE,67,4.0,6.8,84,0.00,,,0.00,Rainwise IP-100,2013-04-26 11:37:00,
2013-04-26 07:42:00,49.3,44.0,30.40,East,90,4.2,6.8,83,0.00,,,0.00,Rainwise IP-100,2013-04-26 11:42:00,
2013-04-26 07:47:00,49.7,45.0,30.40,ENE,67,3.0,7.2,82,0.00,,,0.00,Rainwise IP-100,2013-04-26 11:47:00,
2013-04-26 07:52:00,50.1,44.0,30.40,East,90,2.6,5.8,81,0.00,,,0.00,Rainwise IP-100,2013-04-26 11:52:00,
2013-04-26 07:57:00,50.4,45.0,30.41,ENE,67,5.1,7.5,80,0.00,,,0.00,Rainwise IP-100,2013-04-26 11:57:00,
2013-04-26 08:02:00,50.7,44.0,30.41,ENE,67,4.9,10.7,78,0.00,,,0.00,Rainwise IP-100,2013-04-26 12:02:00,
2013-04-26 08:07:00,51.0,44.0,30.41,East,90,8.2,10.7,77,0.00,,,0.00,Rainwise IP-100,2013-04-26 12:07:00,
2013-04-26 08:12:00,51.2,44.0,30.41,ESE,112,3.7,11.2,76,0.00,,,0.00,Rainwise IP-100,2013-04-26 12:12:00,
2013-04-26 08:17:00,51.4,43.0,30.41,East,90,4.7,10.5,74,0.00,,,0.00,Rainwise IP-100,2013-04-26 12:17:00,
2013-04-26 08:22:00,51.7,44.0,30.41,East,90,8.2,12.6,74,0.00,,,0.00,Rainwise IP-100,2013-04-26 12:22:00,
2013-04-26 08:27:00,51.7,43.0,30.41,ESE,112,4.4,9.8,73,0.00,,,0.00,Rainwise IP-100,2013-04-26 12:27:00,
2013-04-26 08:32:00,51.9,43.0,30.42,East,90,4.4,8.4,72,0.00,,,0.00,Rainwise IP-100,2013-04-26 12:32:00,
2013-04-26 08:37:00,52.1,43.0,30.41,East,90,2.1,10.5,71,0.00,,,0.00,Rainwise IP-100,2013-04-26 12:37:00,
2013-04-26 08:42:00,52.2,42.0,30.41,East,90,6.5,11.2,70,0.00,,,0.00,Rainwise IP-100,2013-04-26 12:42:00,
2013-04-26 08:47:00,52.0,42.0,30.42,ENE,67,7.2,8.4,70,0.00,,,0.00,Rainwise IP-100,2013-04-26 12:47:00,
2013-04-26 08:52:00,52.0,42.0,30.42,ESE,112,2.6,9.3,70,0.00,,,0.00,Rainwise IP-100,2013-04-26 12:52:00,
2013-04-26 08:57:00,52.2,42.0,30.42,East,90,7.7,9.6,70,0.00,,,0.00,Rainwise IP-100,2013-04-26 12:57:00,
2013-04-26 09:02:00,52.5,43.0,30.42,ENE,67,6.8,10.3,69,0.00,,,0.00,Rainwise IP-100,2013-04-26 13:02:00,
2013-04-26 09:07:00,52.3,42.0,30.42,ENE,67,4.9,11.0,69,0.00,,,0.00,Rainwise IP-100,2013-04-26 13:07:00,
2013-04-26 09:12:00,52.3,42.0,30.42,East,90,5.8,11.7,69,0.00,,,0.00,Rainwise IP-100,2013-04-26 13:12:00,
2013-04-26 09:17:00,52.6,43.0,30.42,East,90,4.7,10.7,69,0.00,,,0.00,Rainwise IP-100,2013-04-26 13:17:00,
2013-04-26 09:22:00,52.6,42.0,30.42,ENE,67,4.2,13.1,68,0.00,,,0.00,Rainwise IP-100,2013-04-26 13:22:00,
2013-04-26 09:27:00,52.6,42.0,30.42,ENE,67,11.4,11.4,68,0.00,,,0.00,Rainwise IP-100,2013-04-26 13:27:00,
2013-04-26 09:32:00,52.6,42.0,30.43,East,90,6.1,12.4,68,0.00,,,0.00,Rainwise IP-100,2013-04-26 13:32:00,
2013-04-26 09:37:00,52.7,42.0,30.43,ESE,112,6.5,12.1,68,0.00,,,0.00,Rainwise IP-100,2013-04-26 13:37:00,
2013-04-26 09:42:00,52.8,42.0,30.43,ENE,67,8.4,12.8,67,0.00,,,0.00,Rainwise IP-100,2013-04-26 13:42:00,
2013-04-26 09:47:00,52.7,41.0,30.43,ENE,67,6.8,12.6,66,0.00,,,0.00,Rainwise IP-100,2013-04-26 13:47:00,
2013-04-26 09:52:00,52.8,41.0,30.43,ENE,67,4.9,9.8,65,0.00,,,0.00,Rainwise IP-100,2013-04-26 13:52:00,
2013-04-26 09:57:00,52.9,41.0,30.43,ENE,67,6.8,10.7,65,0.00,,,0.00,Rainwise IP-100,2013-04-26 13:57:00,
2013-04-26 10:02:00,53.0,41.0,30.44,ESE,112,4.2,9.6,65,0.00,,,0.00,Rainwise IP-100,2013-04-26 14:02:00,
2013-04-26 10:07:00,53.2,41.0,30.43,ESE,112,4.7,11.7,64,0.00,,,0.00,Rainwise IP-100,2013-04-26 14:07:00,
2013-04-26 10:12:00,53.2,41.0,30.44,East,90,5.6,9.8,64,0.00,,,0.00,Rainwise IP-100,2013-04-26 14:12:00,
2013-04-26 10:17:00,52.8,41.0,30.44,ENE,67,9.3,10.5,64,0.00,,,0.00,Rainwise IP-100,2013-04-26 14:17:00,
2013-04-26 10:22:00,52.4,40.0,30.44,East,90,9.6,13.3,64,0.00,,,0.00,Rainwise IP-100,2013-04-26 14:22:00,
2013-04-26 10:27:00,52.2,40.0,30.45,ESE,112,4.0,10.3,65,0.00,,,0.00,Rainwise IP-100,2013-04-26 14:27:00,
2013-04-26 10:32:00,52.6,41.0,30.44,East,90,3.3,11.7,65,0.00,,,0.00,Rainwise IP-100,2013-04-26 14:32:00,
2013-04-26 10:37:00,52.7,41.0,30.44,East,90,6.1,11.9,64,0.00,,,0.00,Rainwise IP-100,2013-04-26 14:37:00,
2013-04-26 10:42:00,52.4,40.0,30.45,East,90,3.7,12.4,64,0.00,,,0.00,Rainwise IP-100,2013-04-26 14:42:00,
2013-04-26 10:47:00,52.7,41.0,30.45,East,90,5.1,9.8,64,0.00,,,0.00,Rainwise IP-100,2013-04-26 14:47:00,
2013-04-26 10:52:00,53.0,41.0,30.44,East,90,12.1,13.3,64,0.00,,,0.00,Rainwise IP-100,2013-04-26 14:52:00,
2013-04-26 10:57:00,52.6,40.0,30.45,ESE,112,7.0,13.8,63,0.00,,,0.00,Rainwise IP-100,2013-04-26 14:57:00,
2013-04-26 11:02:00,52.0,40.0,30.45,East,90,7.9,13.1,64,0.00,,,0.00,Rainwise IP-100,2013-04-26 15:02:00,
2013-04-26 11:07:00,52.2,40.0,30.45,East,90,9.6,14.2,65,0.00,,,0.00,Rainwise IP-100,2013-04-26 15:07:00,
2013-04-26 11:12:00,52.5,41.0,30.45,ENE,67,7.5,10.5,65,0.00,,,0.00,Rainwise IP-100,2013-04-26 15:12:00,
2013-04-26 11:17:00,52.3,40.0,30.45,ENE,67,8.6,12.8,65,0.00,,,0.00,Rainwise IP-100,2013-04-26 15:17:00,
2013-04-26 11:22:00,52.3,40.0,30.45,East,90,4.4,10.7,65,0.00,,,0.00,Rainwise IP-100,2013-04-26 15:22:00,
2013-04-26 11:27:00,52.3,40.0,30.45,SSE,157,3.0,12.6,65,0.00,,,0.00,Rainwise IP-100,2013-04-26 15:27:00,
2013-04-26 11:32:00,52.4,40.0,30.45,ENE,67,6.8,13.1,64,0.00,,,0.00,Rainwise IP-100,2013-04-26 15:32:00,
2013-04-26 11:37:00,52.3,40.0,30.45,ESE,112,7.0,13.3,64,0.00,,,0.00,Rainwise IP-100,2013-04-26 15:37:00,
2013-04-26 11:42:00,52.0,40.0,30.45,East,90,10.0,12.8,63,0.00,,,0.00,Rainwise IP-100,2013-04-26 15:42:00,
2013-04-26 11:47:00,51.9,40.0,30.44,ENE,67,9.3,13.8,64,0.00,,,0.00,Rainwise IP-100,2013-04-26 15:47:00,
2013-04-26 11:52:00,51.8,40.0,30.44,East,90,10.3,13.3,64,0.00,,,0.00,Rainwise IP-100,2013-04-26 15:52:00,
2013-04-26 11:57:00,51.7,40.0,30.44,East,90,8.9,11.4,65,0.00,,,0.00,Rainwise IP-100,2013-04-26 15:57:00,
2013-04-26 12:02:00,51.5,40.0,30.44,East,90,8.4,14.2,65,0.00,,,0.00,Rainwise IP-100,2013-04-26 16:02:00,
2013-04-26 12:07:00,51.4,40.0,30.44,ENE,67,11.9,13.1,65,0.00,,,0.00,Rainwise IP-100,2013-04-26 16:07:00,
2013-04-26 12:12:00,51.6,41.0,30.43,East,90,6.8,13.3,66,0.00,,,0.00,Rainwise IP-100,2013-04-26 16:12:00,
2013-04-26 12:17:00,51.6,41.0,30.44,ENE,67,3.7,13.3,66,0.00,,,0.00,Rainwise IP-100,2013-04-26 16:17:00,
2013-04-26 12:22:00,51.6,41.0,30.44,ENE,67,6.1,10.5,67,0.00,,,0.00,Rainwise IP-100,2013-04-26 16:22:00,
2013-04-26 12:27:00,51.7,41.0,30.44,East,90,9.1,11.4,66,0.00,,,0.00,Rainwise IP-100,2013-04-26 16:27:00,
2013-04-26 12:32:00,51.6,41.0,30.44,ENE,67,5.8,11.7,66,0.00,,,0.00,Rainwise IP-100,2013-04-26 16:32:00,
2013-04-26 12:37:00,51.6,41.0,30.44,ESE,112,6.1,11.4,66,0.00,,,0.00,Rainwise IP-100,2013-04-26 16:37:00,
2013-04-26 12:42:00,52.0,41.0,30.43,ESE,112,5.8,11.0,67,0.00,,,0.00,Rainwise IP-100,2013-04-26 16:42:00,
2013-04-26 12:47:00,52.4,41.0,30.44,ENE,67,5.8,9.8,66,0.00,,,0.00,Rainwise IP-100,2013-04-26 16:47:00,
2013-04-26 12:52:00,52.7,41.0,30.44,ENE,67,8.2,9.6,66,0.00,,,0.00,Rainwise IP-100,2013-04-26 16:52:00,
2013-04-26 12:57:00,52.6,41.0,30.44,ENE,67,7.7,10.5,66,0.00,,,0.00,Rainwise IP-100,2013-04-26 16:57:00,
2013-04-26 13:02:00,52.1,41.0,30.44,East,90,4.9,10.0,66,0.00,,,0.00,Rainwise IP-100,2013-04-26 17:02:00,
2013-04-26 13:07:00,51.9,41.0,30.44,ENE,67,8.6,9.8,66,0.00,,,0.00,Rainwise IP-100,2013-04-26 17:07:00,
2013-04-26 13:12:00,51.8,41.0,30.44,ESE,112,4.9,10.0,66,0.00,,,0.00,Rainwise IP-100,2013-04-26 17:12:00,
2013-04-26 13:17:00,51.9,41.0,30.43,ENE,67,5.4,9.6,66,0.00,,,0.00,Rainwise IP-100,2013-04-26 17:17:00,
2013-04-26 13:22:00,52.1,41.0,30.43,East,90,7.9,8.9,66,0.00,,,0.00,Rainwise IP-100,2013-04-26 17:22:00,
2013-04-26 13:27:00,52.1,41.0,30.43,East,90,2.6,9.3,66,0.00,,,0.00,Rainwise IP-100,2013-04-26 17:27:00,
2013-04-26 13:32:00,52.0,41.0,30.43,ESE,112,8.4,8.4,66,0.00,,,0.00,Rainwise IP-100,2013-04-26 17:32:00,
2013-04-26 13:37:00,52.0,41.0,30.43,East,90,8.6,9.8,66,0.00,,,0.00,Rainwise IP-100,2013-04-26 17:37:00,
2013-04-26 13:42:00,51.6,41.0,30.43,ESE,112,8.4,9.8,66,0.00,,,0.00,Rainwise IP-100,2013-04-26 17:42:00,
2013-04-26 13:47:00,51.7,40.0,30.43,ENE,67,5.8,8.9,65,0.00,,,0.00,Rainwise IP-100,2013-04-26 17:47:00,
2013-04-26 13:52:00,52.3,40.0,30.43,East,90,3.7,7.9,65,0.00,,,0.00,Rainwise IP-100,2013-04-26 17:52:00,
2013-04-26 13:57:00,52.9,41.0,30.43,ENE,67,2.6,8.6,66,0.00,,,0.00,Rainwise IP-100,2013-04-26 17:57:00,
2013-04-26 14:02:00,53.0,41.0,30.43,ENE,67,7.2,8.9,65,0.00,,,0.00,Rainwise IP-100,2013-04-26 18:02:00,
2013-04-26 14:07:00,52.7,41.0,30.43,ENE,67,0.0,9.6,64,0.00,,,0.00,Rainwise IP-100,2013-04-26 18:07:00,
2013-04-26 14:12:00,52.6,41.0,30.42,SE,135,5.1,10.7,64,0.00,,,0.00,Rainwise IP-100,2013-04-26 18:12:00,
2013-04-26 14:17:00,52.5,41.0,30.42,ENE,67,5.8,10.0,64,0.00,,,0.00,Rainwise IP-100,2013-04-26 18:17:00,
2013-04-26 14:22:00,52.5,41.0,30.42,ESE,112,5.6,9.1,65,0.00,,,0.00,Rainwise IP-100,2013-04-26 18:22:00,
2013-04-26 14:27:00,52.6,41.0,30.43,East,90,7.5,9.6,65,0.00,,,0.00,Rainwise IP-100,2013-04-26 18:27:00,
2013-04-26 14:32:00,52.3,41.0,30.43,ENE,67,9.3,11.9,66,0.00,,,0.00,Rainwise IP-100,2013-04-26 18:32:00,
2013-04-26 14:37:00,52.1,41.0,30.43,East,90,5.1,12.1,67,0.00,,,0.00,Rainwise IP-100,2013-04-26 18:37:00,
2013-04-26 14:42:00,52.2,42.0,30.43,ESE,112,6.3,10.0,68,0.00,,,0.00,Rainwise IP-100,2013-04-26 18:42:00,
2013-04-26 14:47:00,52.5,42.0,30.42,ESE,112,6.5,10.0,68,0.00,,,0.00,Rainwise IP-100,2013-04-26 18:47:00,
2013-04-26 14:52:00,52.4,41.0,30.43,East,90,8.9,11.7,67,0.00,,,0.00,Rainwise IP-100,2013-04-26 18:52:00,
2013-04-26 14:57:00,51.9,42.0,30.42,SSE,157,4.0,11.7,68,0.00,,,0.00,Rainwise IP-100,2013-04-26 18:57:00,
2013-04-26 15:02:00,51.9,42.0,30.42,ESE,112,5.6,11.0,70,0.00,,,0.00,Rainwise IP-100,2013-04-26 19:02:00,
2013-04-26 15:07:00,52.0,42.0,30.42,East,90,6.1,11.0,70,0.00,,,0.00,Rainwise IP-100,2013-04-26 19:07:00,
2013-04-26 15:12:00,52.1,43.0,30.42,ENE,67,3.5,8.6,71,0.00,,,0.00,Rainwise IP-100,2013-04-26 19:12:00,
2013-04-26 15:17:00,52.2,42.0,30.42,ESE,112,5.6,11.4,70,0.00,,,0.00,Rainwise IP-100,2013-04-26 19:17:00,
2013-04-26 15:22:00,52.1,42.0,30.42,East,90,8.4,9.8,70,0.00,,,0.00,Rainwise IP-100,2013-04-26 19:22:00,
2013-04-26 15:27:00,51.8,43.0,30.42,East,90,5.8,10.3,71,0.00,,,0.00,Rainwise IP-100,2013-04-26 19:27:00,
2013-04-26 15:32:00,51.6,43.0,30.42,ESE,112,8.6,11.4,71,0.00,,,0.00,Rainwise IP-100,2013-04-26 19:32:00,
2013-04-26 15:37:00,51.6,42.0,30.42,East,90,6.8,10.5,70,0.00,,,0.00,Rainwise IP-100,2013-04-26 19:37:00,
2013-04-26 15:42:00,51.7,42.0,30.42,ESE,112,3.3,10.0,69,0.00,,,0.00,Rainwise IP-100,2013-04-26 19:42:00,
2013-04-26 15:47:00,52.3,42.0,30.42,ENE,67,6.8,7.7,69,0.00,,,0.00,Rainwise IP-100,2013-04-26 19:47:00,
2013-04-26 15:52:00,52.5,43.0,30.42,East,90,10.3,11.0,69,0.00,,,0.00,Rainwise IP-100,2013-04-26 19:52:00,
2013-04-26 15:57:00,52.0,42.0,30.41,East,90,5.6,10.5,69,0.00,,,0.00,Rainwise IP-100,2013-04-26 19:57:00,
2013-04-26 16:02:00,51.9,42.0,30.42,East,90,9.6,12.1,70,0.00,,,0.00,Rainwise IP-100,2013-04-26 20:02:00,
2013-04-26 16:07:00,51.8,42.0,30.42,East,90,7.5,13.1,70,0.00,,,0.00,Rainwise IP-100,2013-04-26 20:07:00,
2013-04-26 16:12:00,51.4,42.0,30.42,East,90,10.7,10.7,71,0.00,,,0.00,Rainwise IP-100,2013-04-26 20:12:00,
2013-04-26 16:17:00,51.3,42.0,30.42,SE,135,5.1,12.8,71,0.00,,,0.00,Rainwise IP-100,2013-04-26 20:17:00,
2013-04-26 16:22:00,51.3,42.0,30.42,ESE,112,4.0,10.3,71,0.00,,,0.00,Rainwise IP-100,2013-04-26 20:22:00,
2013-04-26 16:27:00,51.7,43.0,30.42,NNE,22,2.6,9.8,71,0.00,,,0.00,Rainwise IP-100,2013-04-26 20:27:00,
2013-04-26 16:32:00,52.0,43.0,30.42,East,90,6.1,10.3,71,0.00,,,0.00,Rainwise IP-100,2013-04-26 20:32:00,
2013-04-26 16:37:00,51.8,43.0,30.42,East,90,4.9,12.8,72,0.00,,,0.00,Rainwise IP-100,2013-04-26 20:37:00,
2013-04-26 16:42:00,51.7,43.0,30.42,ENE,67,3.0,11.2,72,0.00,,,0.00,Rainwise IP-100,2013-04-26 20:42:00,
2013-04-26 16:47:00,51.6,43.0,30.42,SE,135,6.5,13.1,73,0.00,,,0.00,Rainwise IP-100,2013-04-26 20:47:00,
2013-04-26 16:52:00,51.3,43.0,30.42,East,90,6.1,11.7,73,0.00,,,0.00,Rainwise IP-100,2013-04-26 20:52:00,
2013-04-26 16:57:00,50.9,43.0,30.42,East,90,1.4,13.3,74,0.00,,,0.00,Rainwise IP-100,2013-04-26 20:57:00,
2013-04-26 17:02:00,50.9,43.0,30.42,ENE,67,5.8,8.6,74,0.00,,,0.00,Rainwise IP-100,2013-04-26 21:02:00,
2013-04-26 17:07:00,51.2,43.0,30.42,ENE,67,5.6,10.0,74,0.00,,,0.00,Rainwise IP-100,2013-04-26 21:07:00,
2013-04-26 17:12:00,51.2,43.0,30.42,East,90,3.0,11.9,74,0.00,,,0.00,Rainwise IP-100,2013-04-26 21:12:00,
2013-04-26 17:17:00,51.1,43.0,30.42,ENE,67,8.9,11.2,74,0.00,,,0.00,Rainwise IP-100,2013-04-26 21:17:00,
2013-04-26 17:22:00,50.9,44.0,30.42,ESE,112,6.3,10.5,75,0.00,,,0.00,Rainwise IP-100,2013-04-26 21:22:00,
2013-04-26 17:27:00,50.8,44.0,30.43,East,90,8.9,11.2,75,0.00,,,0.00,Rainwise IP-100,2013-04-26 21:27:00,
2013-04-26 17:32:00,50.8,44.0,30.43,East,90,6.3,11.4,76,0.00,,,0.00,Rainwise IP-100,2013-04-26 21:32:00,
2013-04-26 17:37:00,50.8,44.0,30.43,ENE,67,4.9,10.0,76,0.00,,,0.00,Rainwise IP-100,2013-04-26 21:37:00,
2013-04-26 17:42:00,50.8,44.0,30.43,ESE,112,5.1,9.1,76,0.00,,,0.00,Rainwise IP-100,2013-04-26 21:42:00,
2013-04-26 17:47:00,50.8,44.0,30.43,ESE,112,4.7,11.0,76,0.00,,,0.00,Rainwise IP-100,2013-04-26 21:47:00,
2013-04-26 17:52:00,50.7,43.0,30.43,ESE,112,3.7,8.6,76,0.00,,,0.00,Rainwise IP-100,2013-04-26 21:52:00,
2013-04-26 17:57:00,50.4,43.0,30.43,ESE,112,4.4,12.1,77,0.00,,,0.00,Rainwise IP-100,2013-04-26 21:57:00,
2013-04-26 18:02:00,50.2,43.0,30.43,ESE,112,4.2,9.1,78,0.00,,,0.00,Rainwise IP-100,2013-04-26 22:02:00,
2013-04-26 18:07:00,50.2,43.0,30.43,East,90,11.0,11.0,79,0.00,,,0.00,Rainwise IP-100,2013-04-26 22:07:00,
2013-04-26 18:12:00,50.0,43.0,30.44,East,90,5.6,11.0,79,0.00,,,0.00,Rainwise IP-100,2013-04-26 22:12:00,
2013-04-26 18:17:00,49.9,44.0,30.43,East,90,2.3,10.0,80,0.00,,,0.00,Rainwise IP-100,2013-04-26 22:17:00,
2013-04-26 18:22:00,49.9,44.0,30.44,East,90,5.1,6.1,80,0.00,,,0.00,Rainwise IP-100,2013-04-26 22:22:00,
2013-04-26 18:27:00,49.9,44.0,30.44,ESE,112,7.9,8.2,81,0.00,,,0.00,Rainwise IP-100,2013-04-26 22:27:00,
2013-04-26 18:32:00,49.9,44.0,30.44,ENE,67,5.1,8.6,81,0.00,,,0.00,Rainwise IP-100,2013-04-26 22:32:00,
2013-04-26 18:37:00,49.7,44.0,30.44,East,90,3.0,9.3,81,0.00,,,0.00,Rainwise IP-100,2013-04-26 22:37:00,
2013-04-26 18:42:00,49.6,45.0,30.44,East,90,4.2,7.0,82,0.00,,,0.00,Rainwise IP-100,2013-04-26 22:42:00,
2013-04-26 18:47:00,49.6,45.0,30.44,East,90,1.6,7.9,82,0.00,,,0.00,Rainwise IP-100,2013-04-26 22:47:00,
2013-04-26 18:52:00,49.5,44.0,30.44,SSE,157,0.0,9.8,81,0.00,,,0.00,Rainwise IP-100,2013-04-26 22:52:00,
2013-04-26 18:57:00,49.5,44.0,30.45,East,90,3.5,6.3,80,0.00,,,0.00,Rainwise IP-100,2013-04-26 22:57:00,
2013-04-26 19:02:00,49.5,44.0,30.45,ESE,112,1.4,8.9,80,0.00,,,0.00,Rainwise IP-100,2013-04-26 23:02:00,
2013-04-26 19:07:00,49.3,43.0,30.44,ENE,67,5.1,5.4,80,0.00,,,0.00,Rainwise IP-100,2013-04-26 23:07:00,
2013-04-26 19:12:00,49.1,43.0,30.44,ESE,112,3.7,6.3,81,0.00,,,0.00,Rainwise IP-100,2013-04-26 23:12:00,
2013-04-26 19:17:00,48.9,44.0,30.44,ENE,67,0.0,5.6,82,0.00,,,0.00,Rainwise IP-100,2013-04-26 23:17:00,
2013-04-26 19:22:00,48.8,44.0,30.44,ESE,112,3.3,5.6,82,0.00,,,0.00,Rainwise IP-100,2013-04-26 23:22:00,
2013-04-26 19:27:00,48.5,44.0,30.45,SSE,157,6.1,6.1,83,0.00,,,0.00,Rainwise IP-100,2013-04-26 23:27:00,
2013-04-26 19:32:00,48.3,44.0,30.45,ENE,67,4.4,7.2,84,0.00,,,0.00,Rainwise IP-100,2013-04-26 23:32:00,
2013-04-26 19:37:00,48.0,44.0,30.45,ENE,67,1.9,7.7,85,0.00,,,0.00,Rainwise IP-100,2013-04-26 23:37:00,
2013-04-26 19:42:00,47.8,44.0,30.45,East,90,4.0,9.3,85,0.00,,,0.00,Rainwise IP-100,2013-04-26 23:42:00,
2013-04-26 19:47:00,47.6,43.0,30.45,East,90,3.5,9.3,86,0.00,,,0.00,Rainwise IP-100,2013-04-26 23:47:00,
2013-04-26 19:52:00,47.5,43.0,30.45,ESE,112,4.7,7.2,86,0.00,,,0.00,Rainwise IP-100,2013-04-26 23:52:00,
2013-04-26 20:05:00,47.3,44.0,30.45,ENE,67,1.2,5.6,88,0.00,,,0.00,Rainwise IP-100,2013-04-27 00:05:00,
2013-04-26 20:10:00,47.3,44.0,30.46,ESE,112,4.0,4.7,88,0.00,,,0.00,Rainwise IP-100,2013-04-27 00:10:00,
2013-04-26 20:15:00,47.1,43.0,30.46,ESE,112,3.3,6.1,89,0.00,,,0.00,Rainwise IP-100,2013-04-27 00:15:00,
2013-04-26 20:20:00,46.9,43.0,30.46,ENE,67,4.0,6.1,89,0.00,,,0.00,Rainwise IP-100,2013-04-27 00:20:00,
2013-04-26 20:25:00,46.9,43.0,30.46,ESE,112,2.3,5.8,89,0.00,,,0.00,Rainwise IP-100,2013-04-27 00:25:00,
2013-04-26 20:30:00,46.9,43.0,30.46,ENE,67,5.4,5.4,89,0.00,,,0.00,Rainwise IP-100,2013-04-27 00:30:00,
2013-04-26 20:34:00,46.8,43.0,30.46,East,90,4.4,7.5,89,0.00,,,0.00,Rainwise IP-100,2013-04-27 00:34:00,
2013-04-26 20:39:00,46.8,44.0,30.46,ENE,67,5.4,7.5,90,0.00,,,0.00,Rainwise IP-100,2013-04-27 00:39:00,
2013-04-26 20:44:00,46.8,44.0,30.46,East,90,3.3,7.5,90,0.00,,,0.00,Rainwise IP-100,2013-04-27 00:44:00,
2013-04-26 20:49:00,46.7,44.0,30.46,ESE,112,3.0,7.7,90,0.00,,,0.00,Rainwise IP-100,2013-04-27 00:49:00,
2013-04-26 20:54:00,46.7,44.0,30.46,ESE,112,3.3,4.9,90,0.00,,,0.00,Rainwise IP-100,2013-04-27 00:54:00,
2013-04-26 20:59:00,46.6,44.0,30.47,ESE,112,2.3,5.8,90,0.00,,,0.00,Rainwise IP-100,2013-04-27 00:59:00,
2013-04-26 21:04:00,46.5,44.0,30.46,ESE,112,3.0,5.4,90,0.00,,,0.00,Rainwise IP-100,2013-04-27 01:04:00,
2013-04-26 21:09:00,46.5,44.0,30.47,East,90,4.0,7.5,91,0.00,,,0.00,Rainwise IP-100,2013-04-27 01:09:00,
2013-04-26 21:14:00,46.5,44.0,30.46,ESE,112,3.5,5.8,91,0.00,,,0.00,Rainwise IP-100,2013-04-27 01:14:00,
2013-04-26 21:19:00,46.5,44.0,30.46,East,90,2.3,5.4,91,0.00,,,0.00,Rainwise IP-100,2013-04-27 01:19:00,
2013-04-26 21:24:00,46.5,44.0,30.47,ESE,112,2.8,6.5,91,0.00,,,0.00,Rainwise IP-100,2013-04-27 01:24:00,
2013-04-26 21:29:00,46.4,43.0,30.46,ESE,112,4.0,7.5,91,0.00,,,0.00,Rainwise IP-100,2013-04-27 01:29:00,
2013-04-26 21:34:00,46.4,43.0,30.46,ESE,112,2.6,6.3,91,0.00,,,0.00,Rainwise IP-100,2013-04-27 01:34:00,
2013-04-26 21:39:00,46.4,43.0,30.46,East,90,3.5,5.1,91,0.00,,,0.00,Rainwise IP-100,2013-04-27 01:39:00,
2013-04-26 21:44:00,46.3,44.0,30.46,ESE,112,4.7,6.5,92,0.00,,,0.00,Rainwise IP-100,2013-04-27 01:44:00,
2013-04-26 21:49:00,46.3,44.0,30.46,ESE,112,3.5,6.8,92,0.00,,,0.00,Rainwise IP-100,2013-04-27 01:49:00,
2013-04-26 21:54:00,46.3,43.0,30.46,ESE,112,3.3,6.3,91,0.00,,,0.00,Rainwise IP-100,2013-04-27 01:54:00,
2013-04-26 21:59:00,46.3,43.0,30.46,ESE,112,3.3,5.1,91,0.00,,,0.00,Rainwise IP-100,2013-04-27 01:59:00,
2013-04-26 22:04:00,46.2,44.0,30.46,ESE,112,2.6,5.1,92,0.00,,,0.00,Rainwise IP-100,2013-04-27 02:04:00,
2013-04-26 22:09:00,46.1,44.0,30.46,ESE,112,3.3,6.3,92,0.00,,,0.00,Rainwise IP-100,2013-04-27 02:09:00,
2013-04-26 22:14:00,46.2,43.0,30.46,East,90,3.7,5.4,91,0.00,,,0.00,Rainwise IP-100,2013-04-27 02:14:00,
2013-04-26 22:19:00,46.2,43.0,30.46,East,90,2.6,4.4,91,0.00,,,0.00,Rainwise IP-100,2013-04-27 02:19:00,
2013-04-26 22:24:00,46.1,43.0,30.46,East,90,4.0,5.4,91,0.00,,,0.00,Rainwise IP-100,2013-04-27 02:24:00,
2013-04-26 22:29:00,46.0,43.0,30.46,East,90,3.0,4.4,91,0.00,,,0.00,Rainwise IP-100,2013-04-27 02:29:00,
2013-04-26 22:34:00,46.0,43.0,30.46,East,90,3.3,5.4,91,0.00,,,0.00,Rainwise IP-100,2013-04-27 02:34:00,
2013-04-26 22:39:00,46.0,43.0,30.46,East,90,3.7,5.4,91,0.00,,,0.00,Rainwise IP-100,2013-04-27 02:39:00,
2013-04-26 22:44:00,45.9,43.0,30.46,ESE,112,1.9,4.7,91,0.00,,,0.00,Rainwise IP-100,2013-04-27 02:44:00,
2013-04-26 22:49:00,46.0,43.0,30.46,ESE,112,2.6,6.1,91,0.00,,,0.00,Rainwise IP-100,2013-04-27 02:49:00,
2013-04-26 22:54:00,45.9,44.0,30.45,East,90,3.3,5.6,92,0.00,,,0.00,Rainwise IP-100,2013-04-27 02:54:00,
2013-04-26 22:59:00,45.8,44.0,30.45,East,90,2.8,4.7,92,0.00,,,0.00,Rainwise IP-100,2013-04-27 02:59:00,
2013-04-26 23:04:00,45.8,44.0,30.46,East,90,3.5,6.8,92,0.00,,,0.00,Rainwise IP-100,2013-04-27 03:04:00,
2013-04-26 23:09:00,45.7,44.0,30.45,East,90,4.2,6.3,92,0.00,,,0.00,Rainwise IP-100,2013-04-27 03:09:00,
2013-04-26 23:14:00,45.7,44.0,30.46,East,90,3.5,5.6,92,0.00,,,0.00,Rainwise IP-100,2013-04-27 03:14:00,
2013-04-26 23:19:00,45.8,44.0,30.45,ESE,112,4.9,5.8,92,0.00,,,0.00,Rainwise IP-100,2013-04-27 03:19:00,
2013-04-26 23:24:00,46.0,44.0,30.45,ESE,112,2.8,5.6,92,0.00,,,0.00,Rainwise IP-100,2013-04-27 03:24:00,
2013-04-26 23:29:00,46.0,44.0,30.45,ESE,112,3.5,4.0,92,0.00,,,0.00,Rainwise IP-100,2013-04-27 03:29:00,
2013-04-26 23:34:00,45.9,44.0,30.46,ESE,112,3.0,5.8,92,0.00,,,0.00,Rainwise IP-100,2013-04-27 03:34:00,
2013-04-26 23:39:00,45.8,44.0,30.46,East,90,3.3,6.1,92,0.00,,,0.00,Rainwise IP-100,2013-04-27 03:39:00,
2013-04-26 23:44:00,45.8,44.0,30.45,ESE,112,2.6,5.1,92,0.00,,,0.00,Rainwise IP-100,2013-04-27 03:44:00,
2013-04-26 23:49:00,45.8,44.0,30.45,ESE,112,2.6,4.9,92,0.00,,,0.00,Rainwise IP-100,2013-04-27 03:49:00,
2013-04-26 23:54:00,45.7,44.0,30.45,ESE,112,3.5,5.1,92,0.00,,,0.00,Rainwise IP-100,2013-04-27 03:54:00,
2013-04-26 23:59:00,45.8,44.0,30.45,East,90,1.4,7.0,92,0.00,,,0.00,Rainwise IP-100,2013-04-27 03:59:00,